Location: Caltech
(34.1382°N, 118.1253°W)
Time: 09:24:34
(UTC-07:00)

Cosmos 2237 Rocket - Visible Passes

Search period start: 28 July 2016 00:00
Search period end: 07 August 2016 00:00
Orbit: 833 x 852 km, 71.0° (Epoch: 27 July)

Date Brightness Start Highest point End Pass type
(mag) Time Alt. Az. Time Alt. Az. Time Alt. Az.
01 Aug 3.4 05:35:57 10° S 05:41:16 44° ESE 05:46:39 10° NE visible
02 Aug 3.5 05:21:11 10° S 05:26:28 41° ESE 05:31:47 10° NE visible
03 Aug 3.5 05:06:27 10° S 05:11:40 39° ESE 05:16:55 10° NE visible
04 Aug 3.6 04:51:42 10° S 04:56:52 37° ESE 05:02:03 10° NE visible
05 Aug 3.6 04:36:58 10° SSE 04:42:04 35° ESE 04:47:11 10° NE visible
06 Aug 3.7 04:22:14 10° SSE 04:27:16 33° ESE 04:32:18 10° NE visible
